Regional Weather Roundup
Issued by NWS Northern Indiana

Home | Current Version | Previous Version | Graphics & Text | Print | Product List | Glossary On
Versions: 1 2 3 4 5 6 7 8 9 10 11 12 13 14 15 16 17 18 19 20 21 22 23 24 25 26 27 28 29 30 31 32 33 34 35 36 37 38 39 40 41 42 43 44 45 46 47 48 49 50
000
ASUS43 KIWX 220210
RWRIWX

KIWX WEATHER ROUNDUP
NATIONAL WEATHER SERVICE NORTHERN INDIANA
900 PM EST SAT JAN 21 2017

NOTE: "FAIR" INDICATES FEW OR NO CLOUDS BELOW 12,000 FEET WITH NO
SIGNIFICANT WEATHER AND/OR OBSTRUCTIONS TO VISIBILITY.

* THESE STATIONS ARE NOT UNDER NWS QUALITY CONTROL. THEY ALSO MAY NOT
  REPORT WEATHER SUCH AS PRECIPITATION OR FOG.

INZ001>027-220300-
NORTHERN INDIANA

CITY           SKY/WX    TMP DP  RH WIND       PRES   REMARKS
GARY*          PTCLDY    43  41  93 CALM      29.57R
VALPARAISO     FOG       46  46 100 CALM      29.58R VSB 3/4
LAPORTE*       CLEAR     44  44  99 CALM      29.58R FOG
KNOX*          PTCLDY    46  36  66 CALM      29.57R
SOUTH BEND     PTCLDY    45  44  97 CALM      29.58R
GOSHEN         FOG       45  44  97 CALM      29.58S VSB 1/2
ROCHESTER*     FOG       45  45 100 CALM      29.59R VSB<1/4
WARSAW*        CLEAR     50  50 100 CALM      29.59R
FORT WAYNE     PTCLDY    51  48  89 S5        29.60R
PERU/GRISSOM   PTCLDY    50  50 100 S6        29.57R
MARION*        PTCLDY    50  48  93 S6        29.61R

$$
INZ028>050-220300-
CENTRAL INDIANA

CITY           SKY/WX    TMP DP  RH WIND       PRES   REMARKS
LAFAYETTE      PTCLDY    47  47 100 CALM      29.57R
KOKOMO*        PTCLDY    52  50  93 S6        29.60R
MUNCIE*        PTCLDY    56  52  86 S6        29.60S
INDIANAPOLIS   PTCLDY    56  49  77 S6        29.60R

$$
MIZ043>046-050>051-056>058-064>065-071>073-077>080-220300-
SOUTHWEST LOWER MICHIGAN

CITY           SKY/WX    TMP DP  RH WIND       PRES   REMARKS
BATTLE CREEK   CLEAR     50  49  96 S9        29.59R
BENTON HARBOR  MOCLDY    47  44  90 CALM      29.57R
COLDWATER*     MOCLDY    52  51  99 SE7       29.59R
HILLSDALE*     CLEAR     48  46  93 SE6       29.60R FOG
HOLLAND        CLEAR     50  44  80 SW7       29.56R
GRAND RAPIDS   PTCLDY    48  45  89 S8        29.56R
KALAMAZOO      CLEAR     50  46  86 SE3       29.58R
STURGIS*       MOCLDY    47  46  99 S3        29.58S
THREE RIVERS*  MOCLDY    48  47  98 S3        29.59R

$$
OHZ001>008-015>018-024>025-220300-
NORTHWEST OHIO

CITY           SKY/WX    TMP DP  RH WIND       PRES   REMARKS
DEFIANCE       CLEAR     51  48  89 SE5       29.60S
FINDLAY        CLEAR     52  47  83 SE6       29.61S
TOLEDO EXPRESS CLEAR     51  51 100 S5        29.61S
TOLEDO METCALF CLEAR     49  48  97 S7        29.63S
LIMA           CLEAR     51  49  92 S8        29.62S

$$
AND FOR LAKE MICHIGAN COASTAL AND OPEN LAKE BUOY OBSERVATIONS

STATION/POSITION TEMP    WIND        PRES    VSBY  WAVE
                 AIR SEA DIR/SP/G                  HT/PER
                 (F)     (DEG/KT/KT) (MB)    (MI)  (FT/S)
CALUMET HARBOR    50     250/  2/  2 1000.9R
MICHIGAN CITY     55     180/  6/  7   N/A
BURNS HARBOR      53     220/  6/  9 1002.0R

$$
&&



USA.gov is the U.S. government's official web portal to all federal, state and local government web resources and services.